Regional Weather Roundup
Issued by NWS

Home | Current Version | Previous Version | Graphics & Text | Print | Product List | Glossary On
Versions: 1 2 3 4 5 6 7 8 9 10 11 12 13 14 15 16 17 18 19 20 21 22 23 24 25 26 27 28 29 30 31 32 33 34 35 36 37 38 39 40 41 42 43 44 45 46
000
ASUS43 KMKX 240111
RWRWI

WISCONSIN REGIONAL WEATHER ROUNDUP
NATIONAL WEATHER SERVICE MILWAUKEE/SULLIVAN WI
800 PM CDT TUE AUG 23 2016

NOTE: "FAIR" INDICATES FEW OR NO CLOUDS BELOW 12,000 FEET WITH NO
SIGNIFICANT WEATHER AND/OR OBSTRUCTIONS TO VISIBILITY.

WIZ001-002-006>008-014>016-023>028-240200-
NORTHWEST WISCONSIN

CITY           SKY/WX    TMP DP  RH WIND       PRES   REMARKS
SUPERIOR ARPT  CLOUDY    76  68  77 S8        29.86F
ASHLAND        CLOUDY    76  65  68 S10       29.91F
HAYWARD        CLOUDY    74  65  73 S9        29.93F
SIREN          CLOUDY    75  64  68 S9        29.90S
CUMBERLAND     CLOUDY    72  63  73 SE7       29.92F
RICE LAKE      CLOUDY    73  65  76 SE9       29.93F
CHETEK         NOT AVBL
LADYSMITH      CLOUDY    73  64  73 SE7       29.98F
EAU CLAIRE     MOCLDY    75  64  68 SE10      29.92F
MENOMONIE      CLOUDY    74  65  75 SE8       29.91F
NEW RICHMOND   CLOUDY    73  62  67 SE10      29.88F
OSCEOLA        CLOUDY    74  65  72 SE9       29.89F
$$

WIZ003>005-009-010-017-018-240200-
NORTH CENTRAL WISCONSIN

CITY           SKY/WX    TMP DP  RH WIND       PRES   REMARKS
MANITOWISH WTR NOT AVBL
ARBOR VITAE    CLOUDY    72  64  75 S9        30.01F
WOODRUFF       CLOUDY    72  64  75 S9        30.01F
RHINELANDER    PTCLDY    71  63  75 S3        30.04S
EAGLE RIVER    PTCLDY    69  59  70 S3        30.02F
LAND O LAKES   PTCLDY    71  61  70 S5        30.03S
PHILLIPS       CLOUDY    71  65  80 S6        29.99F
TOMAHAWK       CLOUDY    67  61  80 CALM      30.03S
MEDFORD        CLOUDY    68  65  90 S5        30.01S
MERRILL        PTCLDY    72  63  74 S5        30.03S
$$

WIZ029-030-035-036-043>047-240200-
CENTRAL WISCONSIN

CITY           SKY/WX    TMP DP  RH WIND       PRES   REMARKS
WAUSAU         MOCLDY    71  62  73 SE6       30.00F
MOSINEE        PTCLDY    70  63  78 SE6       30.03F
MARSHFIELD     MOCLDY    70  61  73 S7        30.01S
STEVENS POINT  CLOUDY    72  61  69 CALM      30.03S
WAUPACA        PTCLDY    73  63  71 SE6       30.04S
WAUTOMA        CLEAR     72  63  73 S7        30.03F
WISC RAPIDS    CLOUDY    72  63  73 SE5       30.03F
CAMP DOUGLAS   CLOUDY    72  64  78 SE6       30.00S
$$

WIZ011>013-019>022-031-037>040-048>050-240200-
NORTHEAST WISCONSIN

CITY           SKY/WX    TMP DP  RH WIND       PRES   REMARKS
ANTIGO         MOCLDY    68  62  81 S6        30.05F
SHAWANO        PTCLDY    74  63  68 S5        30.04F
OCONTO         NOT AVBL
STURGEON BAY   PTCLDY    70  62  76 S10       30.07F
GREEN BAY      CLEAR     72  64  76 S7        30.05F
MANITOWOC      PTCLDY    70  62  76 S14       30.08F
APPLETON       PTCLDY    73  57  56 S9        30.04F
CLINTONVILLE   PTCLDY    70  61  73 S5        30.03F
OSHKOSH        CLEAR     68  61  78 S5        30.05F
$$

WIZ032>034-041-042-053>061-240200-
SOUTHWEST WISCONSIN

CITY           SKY/WX    TMP DP  RH WIND       PRES   REMARKS
LA CROSSE      CLOUDY    77  71  82 SE10      29.96S
SPARTA         CLOUDY    73  64  74 SE6       29.99F
VIROQUA        CLOUDY    72  65  77 SE8       30.00F
BOSCOBEL       CLOUDY    76  65  68 VRB3      29.99S
PRAIRIE DU CHI CLOUDY    75  64  68 SE6       29.96F
PLATTEVILLE    MOCLDY    73  68  84 SE9       30.02S
$$

WIZ056-057-062-063-064-067-068-240200-
SOUTH CENTRAL WISCONSIN

CITY           SKY/WX    TMP DP  RH WIND       PRES   REMARKS
REEDSBURG      NOT AVBL
BARABOO/DELLS  PTCLDY    71  61  69 SE8       30.02F
LONE ROCK      CLOUDY    74  65  73 SE6       30.01F
MINERAL POINT  MOCLDY    73  66  78 SE9       30.02F
MADISON        MOCLDY    74  62  66 S13       30.04F
MIDDLETON      MOCLDY    74  63  66 SE7       30.03F
WATERTOWN      CLEAR     70  63  77 SE6       30.06F
MONROE         CLOUDY    72  64  78 SE9       30.04F
JANESVILLE     PTCLDY    75  63  64 S12       30.05F
$$

WIZ051-052-058>065-066-070>072-240200-
SOUTHEAST WISCONSIN

CITY           SKY/WX    TMP DP  RH WIND       PRES   REMARKS
MILWAUKEE      PTCLDY    77  59  53 SW10      30.09S
WAUKESHA       CLEAR     72  57  60 S9        30.10F
MILWAUKEE/TIMM CLEAR     75  55  50 S8        30.09F
RACINE         CLEAR     71  62  73 SW5       30.12S
BURLINGTON     PTCLDY    70  59  69 S6        30.09F
KENOSHA        MOCLDY    76  60  57 S8        30.10F
FOND DU LAC    CLEAR     71  61  70 S9        30.06F
SHEBOYGAN      CLEAR     70  62  76 S8        30.08F
WEST BEND      CLEAR     72  59  64 S5        30.08F
JUNEAU         CLEAR     70  62  75 SE8       30.07F
$$

LSZ147-162-240200-
LAKE SUPERIOR

STATION/POSITION TIME  TEMP    WIND        PRES    WAVE
                       AIR SEA DIR/SP/G            HT/PER
                 (UTC) (F)     (DEG/KT/KT) (MB)    (FT/S)
W MID LAKE BUOY  0050   72 67  180/ 12/ 12 1011.8R   1/ 3
DEVILS ISLAND    0100   77     180/ 11/ 14 1011.4F
SAXON HARBOR     0000   79     170/  4/  9 1013.2
$$

LMZ867-665-643>646-240200-
LAKE MICHIGAN

STATION/POSITION TIME  TEMP    WIND        PRES    WAVE
                       AIR SEA DIR/SP/G            HT/PER
                 (UTC) (F)     (DEG/KT/KT) (MB)    (FT/S)
CHAMBERS ISLAND  0000   74     160/  7/ 12 1017.6R
S GREEN BAY BUOY 0000   74 74  160/ 14/ 17 1017.2S
N MID LAKE BUOY  0050   72 71  200/ 19/ 23 1017.5R   6/ 6
NORTHPORT PIER   0000   72     160/  8/ 18 1018.3R
SISTER BAY       0007   73     190/ 17/ 21   N/A
KEWAUNEE LAKESHO 0000   67     180/ 15/ 18 1018.4R
SHEBOYGAN LAKESH 0100   67     180/ 17/ 18 1017.9F
PORT WASHINGTON  0040   65     200/  7/ 12 1019.6S
ATWATER BUOY     0000   67 54  160/ 14/ 17   N/A
MILWAUKEE LAKESH 0010   68     150/ 16/ 18   N/A
S MID LAKE BUOY  0050   76 75  160/ 16/ 17 1019.4F   2/ 4
KENOSHA   LAKESH 0100   71     180/  8/  9 1019.0S
$$

TC  - TEMPERATURE IN CELSIUS
VSB - VISIBILITY IN STATUTE MILES
WCI - WIND CHILL INDEX
HX  - HEAT INDEX





USA.gov is the U.S. government's official web portal to all federal, state and local government web resources and services.